sat.trackr.live / text

‹ back to catalog

STARLINK-3983

NORAD 52618 · 2022-052W

PAYLOAD ACTIVE UNKNOWN

§ Identity

Operator
Country
US
Launch date
2022-05-14
Launch site
AFETR
Launch vehicle
Mass (kg)
RCS (m²)

Purposes: comms

External: N2YO · Heavens-Above · Gunter

§ Orbital elements

Epoch: 2026-09-20T02:07:44.918976Z

Period
93.79 min
Inclination
53.1574°
Eccentricity
0.0001201
Mean motion
15.35398478 rev/d
Perigee alt
458.9 km
Apogee alt
460.6 km
Semi-major
6,837.9 km
B*
8.6679e-7
RAAN
104.4628°
Arg perigee
107.9250°
Mean anomaly
252.1884°
Rev number
24,049

§ Raw data

STARLINK-39831 52618U 22052W   26263.08871434 -.00000350  00000+0  86679-6 0  99972 52618  53.1574 104.4628 0001201 107.9250 252.1884 15.35398478240494

JSON: /api/v1/satellites/52618 · /tle

For live sub-satellite position, see the globe view (requires WebGL).

§ Visibility from observer

Set your observer location to see the next 7 days of passes ≥ 10°. The values pass through the URL so the page stays shareable.

No JS? Fill the form by hand. The geolocation button needs JavaScript.